Location: Eastchester Heights
(40.8772°N, 73.8492°W)
Time: 18:18:01
(UTC+00:00)

Daily predictions for brighter satellites

Satellite Brightness Start Highest point End
(mag) Time Altitude Azimuth Time Altitude Azimuth Time Altitude Azimuth
Lacrosse 5 3.6 22:31:38 10° NNW 22:34:57 17° NNE 22:38:17 10° ENE
Cosmos 1825 Rocket 3.6 22:33:41 10° N 22:38:04 85° E 22:42:29 10° S
Cosmos 1470 4.2 22:34:17 10° SSW 22:38:05 44° W 22:41:55 10° N
OAO 3 Rocket 4.1 22:34:01 10° WSW 22:38:39 42° S 22:43:19 10° ESE
Lacrosse 5 rocket 1.2 22:36:14 10° NW 22:40:01 85° SW 22:44:00 10° SE
Meteor 1-16 Rocket 4.3 22:35:14 10° S 22:40:40 56° E 22:45:58 10° NNE
Cosmos 968 Rocket 3.7 22:35:33 10° NNW 22:40:52 84° WSW 22:46:06 10° SSE
Cosmos 1953 Rocket 3.5 22:37:07 10° N 22:41:27 61° E 22:45:43 10° SSE
Cosmos 2239 Rocket 4.4 22:39:57 10° N 22:46:06 74° E 22:52:13 10° SSE
Cosmos 1242 Rocket 3.0 22:43:33 10° N 22:47:03 40° ENE 22:50:31 10° SSE
Cosmos 1626 4.0 22:44:33 10° NNW 22:47:59 36° W 22:51:24 10° SSW
Cosmos 1354 Rocket 4.1 22:42:53 10° NNW 22:48:08 82° WSW 22:53:22 10° SSE
BREEZE-M DEB (TANK) 3.2 22:41:52 10° SW 22:48:37 57° SSE 22:51:14 11° ENE
Cosmos 2278 Rocket 2.7 22:44:07 10° S 22:49:15 37° ESE 22:54:25 10° NE
ATLAS 5 CENTAUR R/B 3.7 22:46:07 10° W 22:49:40 24° NW 22:53:33 10° NNE
Cosmos 1726 2.3 22:46:36 10° S 22:50:08 48° E 22:53:40 10° NNE
Cosmos 1606 Rocket 3.9 22:46:04 10° SSW 22:50:26 71° W 22:54:48 10° N
Cosmos 1328 4.2 22:47:08 10° N 22:50:54 39° ENE 22:54:37 10° SSE
NOAA 12 4.1 22:47:04 10° SSE 22:52:20 89° E 22:57:41 10° NNW
CZ-4C R/B 3.8 22:46:00 10° NW 22:53:17 57° WSW 23:01:22 10° SSE
Ariane Rocket 4.2 22:49:47 10° ESE 22:53:29 21° ENE 22:57:12 10° NNE
Cosmos 1821 Rocket 4.1 22:48:13 10° N 22:54:22 85° W 23:00:32 10° S
Cosmos 1844 4.3 22:49:01 10° SW 22:54:39 61° WNW 23:00:23 10° NNE
Cosmos 1605 Rocket 4.4 22:49:00 10° N 22:54:46 40° ENE 23:00:26 10° SE
USA 238 DEB 4.2 22:55:02 10° S 23:01:00 36° ESE 23:07:06 10° NE
USA 238 4.2 22:55:10 10° S 23:01:07 36° ESE 23:07:12 10° NE
COBE Rocket 4.1 22:57:05 10° N 23:02:17 85° WNW 23:07:19 10° SSW
Cosmos 1934 Rocket 4.0 22:56:55 10° N 23:03:16 72° E 23:09:37 10° SSE
Cosmos 1271 Rocket 3.8 23:04:48 10° NNW 23:08:40 50° W 23:12:32 10° S
CSL-04 Rocket 3.7 23:04:02 10° SSE 23:09:27 60° ENE 23:14:52 10° N
Cosmos 1812 Rocket 4.5 23:06:22 10° SE 23:10:01 26° E 23:13:44 10° NNE
Cosmos 1535 Rocket 4.4 23:04:17 10° N 23:10:31 83° E 23:16:38 10° S
CZ-4 R/B 1.4 23:06:33 10° SSE 23:10:40 74° ENE 23:14:54 10° N
CZ-2D R/B 4.0 23:09:36 10° SE 23:12:59 30° ENE 23:16:25 10° N
Shenzhou-11 Module 2.0 23:12:56 10° WNW 23:15:40 55° N 23:16:48 29° ENE
Cosmos 1777 Rocket 4.1 23:10:57 10° N 23:16:03 53° ENE 23:21:07 10° SE
SKYMED 2 3.9 23:15:34 10° N 23:19:54 68° WNW 23:24:12 10° SSW
YAOGAN 1 2.5 23:15:47 10° SSE 23:20:04 71° ENE 23:24:24 10° N
NOAA 11 4.5 23:15:10 10° SE 23:20:17 44° ENE 23:25:25 10° N
Cosmos 1300 4.3 23:20:24 10° SE 23:21:46 18° SE 23:21:46 18° SE
YAOGAN 6 2.8 23:21:27 10° S 23:25:06 74° WSW 23:28:46 10° NNW
BREEZE-M DEB (TANK) 3.6 23:11:09 10° SW 23:25:17 78° SSE 23:28:00 22° ENE
NOSS 3-2 (A) 3.7 23:20:45 10° S 23:26:00 41° ESE 23:30:58 14° NE
SL-4 R/B 3.9 23:25:39 10° WNW 23:28:45 24° SW 23:31:42 10° S
Cosmos 1833 Rocket 2.9 23:25:00 10° NNW 23:30:25 47° ENE 23:34:15 19° SE
OAO 2 Rocket 4.5 23:27:25 10° WSW 23:32:14 37° SSW 23:35:36 18° SE
Cosmos 1703 3.6 23:30:50 10° NNW 23:34:44 66° W 23:38:36 10° S
H-2A R/B 3.7 23:37:38 17° NE 23:37:38 17° NE 23:40:09 10° NNE
Cosmos 2100 Rocket 4.5 23:31:37 10° N 23:37:13 35° ENE 23:40:02 23° ESE
NOSS 3-2 (C) 3.7 23:44:40 10° S 23:49:53 39° ESE 23:51:12 35° E
Cosmos 1153 Rocket 4.3 23:44:56 10° N 23:51:04 72° E 23:57:11 10° SSE
Cosmos 2058 4.3 23:48:15 10° N 23:50:20 24° NNE 23:50:20 24° NNE
Cosmos 44 4.3 23:48:14 10° S 23:51:31 29° SE 23:51:31 29° SE
